Location: Izdebno
(52.6670°N, 16.2170°E)
Time: 04:21:18
(UTC+01:00)

Envisat - Pass Details

Date: 16 October 2024
Orbit: 761 x 763 km, 98.3° (Epoch: 10 November)

Event Time Altitude Azimuth Distance (km) Brightness Sun altitude
Rises 06:30:31 0° 4° (N) 3,241 6.3 -8.7°
Reaches altitude 10° 06:34:23 10° 334° (NNW) 2,309 5.2 -8.1°
Maximum altitude 06:36:10 12° 313° (NW) 2,177 4.9 -7.9°
Drops below altitude 10° 06:37:58 10° 292° (WNW) 2,304 4.9 -7.6°
Enters shadow 06:38:36 - 286° (WNW) 2,408 4.9 -7.5°
